Вернуться в каталог

CZ-4C R/B

АктивенLEO
NORAD 43278·ROCKET BODY·🇨🇳 China

Запущен Apr 10, 2018 с Jiuquan Satellite Launch Center

Loading…

Ближайшие Пролёты (ближайшие 24 часа)

TLE

СвежийSource: Space-Track

Эпоха: Sep 14, 2026, 14:33 UTC

1 43278U 18034D   26257.60642715 -.00000063  00000-0  24503-4 0  9991
2 43278  63.4313  12.0908 0391689 358.2373   1.7256 13.60960290419015

Отслеживайте CZ-4C R/B в реальном времени с AllMySat

Download on the App Store